Weather reports worldwide

Advertisment
Moskva, Russia (27612): temperature & dewpoint: 14.02.2018 14:00:00 - 20.02.2018 14:00:00 (MSK)Moskva, Russia (27612): wind speed: 14.02.2018 14:00:00 - 20.02.2018 14:00:00 (MSK)Moskva, Russia (27612): wind direction: 14.02.2018 14:00:00 - 20.02.2018 14:00:00 (MSK)Moskva, Russia (27612): reduced air pressure: 14.02.2018 14:00:00 - 20.02.2018 14:00:00 (MSK)Moskva, Russia (27612): visibility: 14.02.2018 14:00:00 - 20.02.2018 14:00:00 (MSK)
Date & Time tt [°C] td [°C] ff [km/h] ff [kn] dd ppp [hPa] vv [km]
20.02.2018 14:00:00 - - - - - - -
20.02.2018 13:00:00 - - - - - - -
20.02.2018 12:00:00 -5,8 -9,4 4 2 NW 1018,8 10
20.02.2018 11:00:00 - - - - - - -
20.02.2018 10:00:00 - - - - - - -
20.02.2018 09:00:00 -7,9 -9,5 4 2 W 1018,6 4,0
20.02.2018 08:00:00 - - - - - - -
20.02.2018 07:00:00 - - - - - - -
20.02.2018 06:00:00 -7,5 -8,8 4 2 W 1018,2 -
20.02.2018 05:00:00 - - - - - - -
20.02.2018 04:00:00 - - - - - - -
20.02.2018 03:00:00 -7,0 -8,8 0 0 N 1018,5 -
20.02.2018 02:00:00 - - - - - - -
20.02.2018 01:00:00 - - - - - - -
20.02.2018 00:00:00 -8,7 -10,1 0 0 N 1018,4 -
19.02.2018 23:00:00 - - - - - - -
19.02.2018 22:00:00 - - - - - - -
19.02.2018 21:00:00 -4,1 -7,8 4 2 NW 1018,5 -
19.02.2018 20:00:00 - - - - - - -
19.02.2018 19:00:00 - - - - - - -
19.02.2018 18:00:00 -3,4 -7,3 4 2 NNW 1018,0 4,0
19.02.2018 17:00:00 - - - - - - -
19.02.2018 16:00:00 - - - - - - -
19.02.2018 15:00:00 -2,6 -5,9 4 2 WNW 1017,1 10
19.02.2018 14:00:00 - - - - - - -
19.02.2018 13:00:00 - - - - - - -
19.02.2018 12:00:00 -3,1 -4,7 4 2 NNW 1016,8 4,0
19.02.2018 11:00:00 - - - - - - -
19.02.2018 10:00:00 - - - - - - -
19.02.2018 09:00:00 -4,2 -5,0 0 0 N 1016,4 1,0
19.02.2018 08:00:00 - - - - - - -
19.02.2018 07:00:00 - - - - - - -
19.02.2018 06:00:00 -4,3 -5,3 0 0 N 1016,4 -
19.02.2018 05:00:00 - - - - - - -
19.02.2018 04:00:00 - - - - - - -
19.02.2018 03:00:00 -3,6 -4,9 4 2 ESE 1017,1 -
19.02.2018 02:00:00 - - - - - - -
19.02.2018 01:00:00 - - - - - - -
19.02.2018 00:00:00 -3,5 -4,9 4 2 SSE 1017,8 -
18.02.2018 23:00:00 - - - - - - -
18.02.2018 22:00:00 - - - - - - -
18.02.2018 21:00:00 -3,3 -4,9 4 2 SE 1018,5 -
18.02.2018 20:00:00 - - - - - - -
18.02.2018 19:00:00 - - - - - - -
18.02.2018 18:00:00 -3,1 -5,0 4 2 SE 1018,9 4,0
18.02.2018 17:00:00 - - - - - - -
18.02.2018 16:00:00 - - - - - - -
18.02.2018 15:00:00 -2,9 -5,6 4 2 SE 1019,4 4,0
18.02.2018 14:00:00 - - - - - - -
18.02.2018 13:00:00 - - - - - - -
18.02.2018 12:00:00 -3,6 -6,7 7 4 SE 1019,8 4,0
18.02.2018 11:00:00 - - - - - - -
18.02.2018 10:00:00 - - - - - - -
18.02.2018 09:00:00 -5,2 -7,2 7 4 SSE 1020,5 4,0
18.02.2018 08:00:00 - - - - - - -
18.02.2018 07:00:00 - - - - - - -
18.02.2018 06:00:00 -5,6 -6,9 4 2 SE 1020,9 -
18.02.2018 05:00:00 - - - - - - -
18.02.2018 04:00:00 - - - - - - -
18.02.2018 03:00:00 -5,5 -7,2 4 2 SE 1022,3 -
18.02.2018 02:00:00 - - - - - - -
18.02.2018 01:00:00 - - - - - - -
18.02.2018 00:00:00 -5,3 -7,2 7 4 SE 1023,3 -
17.02.2018 23:00:00 - - - - - - -
17.02.2018 22:00:00 - - - - - - -
17.02.2018 21:00:00 -5,1 -6,5 4 2 SSE 1024,2 -
17.02.2018 20:00:00 - - - - - - -
17.02.2018 19:00:00 - - - - - - -
17.02.2018 18:00:00 -4,2 -6,2 7 4 SSE 1024,7 4,0
17.02.2018 17:00:00 - - - - - - -
17.02.2018 16:00:00 - - - - - - -
17.02.2018 15:00:00 -3,7 -6,4 11 6 SSE 1025,6 10
17.02.2018 14:00:00 - - - - - - -
17.02.2018 13:00:00 - - - - - - -
17.02.2018 12:00:00 -3,9 -6,8 7 4 SSE 1026,5 10
17.02.2018 11:00:00 - - - - - - -
17.02.2018 10:00:00 - - - - - - -
17.02.2018 09:00:00 -4,9 -6,9 7 4 SSE 1027,8 4,0
17.02.2018 08:00:00 - - - - - - -
17.02.2018 07:00:00 - - - - - - -
17.02.2018 06:00:00 -4,5 -6,7 7 4 SSE 1028,5 -
17.02.2018 05:00:00 - - - - - - -
17.02.2018 04:00:00 - - - - - - -
17.02.2018 03:00:00 -4,4 -6,6 7 4 SSE 1029,8 -
17.02.2018 02:00:00 - - - - - - -
17.02.2018 01:00:00 - - - - - - -
17.02.2018 00:00:00 -3,9 -5,3 7 4 SSE 1030,5 -
16.02.2018 23:00:00 - - - - - - -
16.02.2018 22:00:00 - - - - - - -
16.02.2018 21:00:00 -3,3 -4,7 11 6 S 1031,0 -
16.02.2018 20:00:00 - - - - - - -
16.02.2018 19:00:00 - - - - - - -
16.02.2018 18:00:00 -4,0 -5,7 7 4 SSE 1031,9 4,0
16.02.2018 17:00:00 - - - - - - -
16.02.2018 16:00:00 - - - - - - -
16.02.2018 15:00:00 -4,5 -6,7 4 2 SSE 1032,8 10
16.02.2018 14:00:00 - - - - - - -
16.02.2018 13:00:00 - - - - - - -
16.02.2018 12:00:00 -4,6 -7,1 4 2 S 1033,5 10
16.02.2018 11:00:00 - - - - - - -
16.02.2018 10:00:00 - - - - - - -
16.02.2018 09:00:00 -6,1 -7,5 4 2 SSE 1034,0 4,0
16.02.2018 08:00:00 - - - - - - -
16.02.2018 07:00:00 - - - - - - -
16.02.2018 06:00:00 -6,8 -8,4 7 4 SSE 1034,5 -
16.02.2018 05:00:00 - - - - - - -
16.02.2018 04:00:00 - - - - - - -
16.02.2018 03:00:00 -6,9 -9,2 7 4 SSE 1035,2 -
16.02.2018 02:00:00 - - - - - - -
16.02.2018 01:00:00 - - - - - - -
16.02.2018 00:00:00 -7,2 -9,7 4 2 SSE 1035,5 -
15.02.2018 23:00:00 - - - - - - -
15.02.2018 22:00:00 - - - - - - -
15.02.2018 21:00:00 -7,1 -10,0 4 2 SE 1035,8 -
15.02.2018 20:00:00 - - - - - - -
15.02.2018 19:00:00 - - - - - - -
15.02.2018 18:00:00 -7,2 -9,8 4 2 SE 1036,1 10
15.02.2018 17:00:00 - - - - - - -
15.02.2018 16:00:00 - - - - - - -
15.02.2018 15:00:00 -6,6 -10,2 7 4 SE 1035,8 10
15.02.2018 14:00:00 - - - - - - -
15.02.2018 13:00:00 - - - - - - -
15.02.2018 12:00:00 -8,1 -11,3 4 2 E 1036,0 4,0
15.02.2018 11:00:00 - - - - - - -
15.02.2018 10:00:00 - - - - - - -
15.02.2018 09:00:00 -10,3 -12,2 4 2 E 1035,3 4,0
15.02.2018 08:00:00 - - - - - - -
15.02.2018 07:00:00 - - - - - - -
15.02.2018 06:00:00 -10,8 -12,4 0 0 N 1034,7 -
15.02.2018 05:00:00 - - - - - - -
15.02.2018 04:00:00 - - - - - - -
15.02.2018 03:00:00 -9,5 -11,3 0 0 N 1034,3 -
15.02.2018 02:00:00 - - - - - - -
15.02.2018 01:00:00 - - - - - - -
15.02.2018 00:00:00 -8,6 -11,8 4 2 E 1033,5 -
14.02.2018 23:00:00 - - - - - - -
14.02.2018 22:00:00 - - - - - - -
14.02.2018 21:00:00 -9,0 -10,6 4 2 NE 1033,2 -
14.02.2018 20:00:00 - - - - - - -
14.02.2018 19:00:00 - - - - - - -
14.02.2018 18:00:00 -6,7 -10,3 7 4 SE 1032,5 10
14.02.2018 17:00:00 - - - - - - -
14.02.2018 16:00:00 - - - - - - -
14.02.2018 15:00:00 -5,7 -10,0 4 2 SE 1031,9 10
14.02.2018 14:00:00 - - - - - - -

tt = temperature
td = dewpoint
ff = wind speed
dd = wind direction
ppp = reduced air pressure
vv = visibility

Next stations